Weather Roundup
Issued by NWS Chicago, IL

Home | Current Version | Previous Version | Graphics & Text | Print | Product List | Glossary On
Versions: 1 2 3 4 5 6 7 8 9 10 11 12 13 14 15 16 17 18 19 20 21 22 23 24 25 26 27 28 29 30 31 32 33 34 35 36 37 38 39 40 41 42 43 44 45 46 47 48 49 50
000
NZUS59 KLOT 040721
HRRLOT

CHICAGO AREA WEATHER ROUNDUP
NATIONAL WEATHER SERVICE CHICAGO/ROMEOVILLE IL
200 AM CDT TUE AUG 04 2015

NOTE: "FAIR" INDICATES FEW OR NO CLOUDS BELOW 12,000 FEET WITH NO
SIGNIFICANT WEATHER AND/OR OBSTRUCTIONS TO VISIBILITY.

* THESE STATIONS ARE NOT UNDER NWS QUALITY CONTROL. THEY ALSO MAY NOT
  REPORT WEATHER SUCH AS PRECIPITATION OR FOG.

ILZ005-006-012>014-019>023-040800-
NORTHEAST ILLINOIS

CITY           SKY/WX    TMP DP  RH WIND       PRES   REMARKS
OHARE          CLEAR     65  56  72 W6        29.91S
MIDWAY         CLEAR     69  55  60 W6        29.91S
AURORA         CLEAR     57  53  86 CALM      29.93F
LANSING*       CLEAR     63  55  75 W3        29.92S
JOLIET*        CLEAR     62  58  85 CALM      29.93S
WAUKEGAN       CLEAR     61  55  81 W3        29.91S
DUPAGE AIRPORT CLEAR     63  55  75 CALM      29.92S
WHEELING       CLEAR     65  54  67 CALM      29.92F
KANKAKEE*      CLEAR     60  57  88 CALM      29.94S
MORRIS*        CLEAR     60  56  86 W5        29.93S
LEWIS AIRPORT* CLEAR     61  55  83 W7        29.92F
NORTHERLY IS     N/A     72  55  55 W7          N/A
$$

WIZ051-052-058>065-066-070>072-040800-
SOUTHEAST WISCONSIN

CITY           SKY/WX    TMP DP  RH WIND       PRES   REMARKS
MILWAUKEE      CLEAR     68  51  54 W3        29.90S
KENOSHA*       PTCLDY    58  54  86 W3        29.91S
RACINE*        CLEAR     64  52  64 W6        29.92S
BURLINGTON     CLEAR     55  53  92 CALM      29.92S
WAUKESHA       CLEAR     59  50  72 CALM      29.92F
WEST BEND      CLEAR     59  52  77 CALM      29.90F
$$

INZ001>003-010>013-019-020-040800-
NORTHWEST INDIANA

CITY           SKY/WX    TMP DP  RH WIND       PRES   REMARKS
GARY*          CLEAR     61  58  89 CALM      29.92S
MICHIGAN CITY* NOT AVBL
RENSSELAER*    NOT AVBL
VALPARAISO     CLEAR     61  55  81 SW3       29.92F
$$

LMZ740>746-040800-
SOUTHERN LAKE MICHIGAN

STATION/POSITION TIME  SKY/WX   TEMP WIND        PRES    VSBY
                                AIR  DIR/SP/G
                 (UTC)          (F)  (DEG/KT/KT) (MB)    (MI)
HARRISON CRIB    0700            71  290/ 10/ 11   N/A
BURNHAM HARBOR   0700            71  270/  7/  9   N/A
CALUMET HARBOR   0600            70  250/  3/  4   N/A
BURNS HARBOR     0600            69  210/  6/  8 1013.2S
MICHIGAN CITY    0700            67  180/  7/  8   N/A
$$

ABBREVIATIONS USED IN REMARKS
   TC - TEMPERATURE IN CELSIUS
  WCI - WIND CHILL INDEX
   HX - HEAT INDEX
  VSB - VISIBILITY
$$


USA.gov is the U.S. government's official web portal to all federal, state and local government web resources and services.